STARLINK-34638, 64762

Orbit data source: Space-Track

STARLINK-34638, 64762 is a payload satellite owned by SpaceX/Seattle (US) in LEO that was launched on Tue, 08 Jul 2025 UTC via an FALCON 9 launch vehicle from the Air Force Eastern Test Range (AFETR). Payload-class satellites include a variety of spacecraft equipped with specific instruments for various scientific and technological missions. These include communications satellites like Starlink; space stations such as the ISS; scientific satellites like the Hubble; Earth observation satellites from companies like Planet Labs, Umbra, and HawkEye 360; GPS; miniature CubeSats for education and research; and military/defense satellites.

Loading next visibility...
Identifier
64762, 2025-147H
Orbit
LEO
Country
Flag of USUS
Related business
Manufacturer
SpaceX/Seattle
Mission
Operational Commercial Communications
Bus & Motor
STARLINK V2MO, Unknown motor
Mass
575 kg wet, ~530 kg dry
Launch date (UTC)
2025-07-08 (1 year ago)
Launch vehicle
FALCON 9
Launch site
Air Force Eastern Test Range (AFETR)
Object type
Payload
Rocket body
Debris
Shape & HBR
Box + 1 Pan, 17.7 m
Radar Cross Section
41.120 m², Large (>1 m²)

Expand to show TLE details & history
Last TLE update: 18 hours ago

TLE from 18 hours ago
0 STARLINK-34638
1 64762U 25147H   26235.26060969  .00034221  00000-0  10190-2 0  9995
2 64762  53.1581 185.5658 0000702  99.5269 260.5813 15.34411203 64309
Epoch: 2026-08-23T06:15Z
TLE epoch observation values (Epoch: 2026-08-23T06:15:16.677Z)
Latitude
-0°
Longitude
120.1871°
Altitude
463.65 km
Speed
7.636 km/s
True Right ascension
12h 22m 15s
True Declination
0° 00' 00"
Sunlit
Object was in daylight at epoch
Visualization orbit readout
Latitude
Unknown
Longitude
Unknown
Altitude
Unknown
Speed
Unknown
Apparent Right ascension
Unknown
Apparent Declination
Unknown
Sunlit
N/A
Visualization observer readout
Local Sidereal Time
15:53:47
Azimuth
Unknown
Elevation
Unknown
Doppler factor
Unknown
Orbital elements
Apogee altitude
463.407 km
Perigee altitude
462.447 km
Semi-major axis
6,841.064 km
Eccentricity
0.00007
Inclination
53.1581°
RAAN
185.5658°
Arg. of periapsis
99.5269°
True anomaly
260.57336°
Mean anomaly
260.5813°
Eccentric anomaly
260.57733°
Mean motion
3.83582 °/min
Orbital period
93.85 mins
BSTAR
0.001019
Loading maneuver chart data...
Computing Atmospheric mass density...
Loading historical data...
Loading historical data...
Loading historical data...
Loading historical data...
Loading historical data...
Loading historical data...
Loading historical data...

Documentation

Showing up to 5 results
|